マクノート彗星

260P/McNaught (2019)

English version
Home page
Updated on August 19, 2019

---------------------------------------------------------------------

・ プロフィール

・ 写真集

・ 軌道要素

Epoch 2019 Aug. 25.0 TT = JDT 2458720.5                                         
T 2019 Sept.  9.95548 TT                                Williams                
q   1.4167117            (2000.0)            P               Q                  
n   0.14302601     Peri.   18.38840     +0.98888176     -0.14075373             
a   3.6212572      Node   349.35516     +0.08127461     +0.78173106             
e   0.6087790      Incl.   15.05211     +0.12452835     +0.60752361             
P   6.89                                                                        
From 3517 observations 2005-2019, mean residual 0".5.                           

・ 星図

・ 光度変化

        m1 = 9.0 + 5 logΔ + 25.0 log r(t - 15)

---------------------------------------------------------------------

軌道要素はM.P.E.C. 2019-Q10に掲載されたものです。
星図はステラナビゲータ Ver.8 (アストロアーツ) で作成したものです。
光度グラフはComet for Windowsで作成したものです。

---------------------------------------------------------------------

Copyright(C) Seiichi Yoshida (comet@aerith.net). All rights reserved.